User: anonymous   Login
Location: Campillo
(40.8621°N, 4.2488°W)
Time: 00:29:34
(UTC+00:00)
Language:

Meteor 1-27 Rocket - Orbit

View from above orbital plane
View from above orbital plane
View from above satellite
View from above satellite

Ground track
Ground track

The orbit data is extracted from the following two-line orbital elements,

1  9904U 77024B   21213.69372954  .00000198  00000-0  10953-3 0  9995
2  9904  81.2634 114.1070 0055254  45.4939 315.0726 14.06912942274631
Epoch (UTC): 01 August 2021 16:38:58
Eccentricity: 0.0055254
inclination: 81.2634°
perigee height: 830 km
apogee height: 910 km
right ascension of ascending node: 114.1070°
argument of perigee: 45.4939°
revolutions per day: 14.06912942
mean anomaly at epoch: 315.0726°
orbit number at epoch: 27463

The dashed part of the orbit path shows where the satellite is in the earth's shadow,  

DLR